Jackpot

Texas Poker Multi Jackpot System

Kini Telah hadir Jackpot SUPER ROYAL FLUSH

Kini Telah hadir Jackpot 2000 (khusus table VIP keatas).

Ikutilah global jackpot yang tersedia di system kami, dengan system jackpot terbaru dan pertama di indonesia, anda dapat membeli jackpot dengan harga 100 rupiah saja dan menangkan hadiahnya hingga puluhan juta rupiah.

Jackpot bukanlah suatu keharusan untuk dibeli, namun kami memberikan suatu fitur tambahan untuk member tercinta dari www.ratupokerqq.com.

Terdapat tiga pilihan harga jackpot yang bisa anda beli yaitu :100,500,1000 dan 2000(khusus table VIP Keatas) rupiah.

Hadiah dari Multi jackpot system www.ratupokerqq.com

  1. full house x 10 harga jackpot yang anda beli.
      (contoh:anda membeli 1000 maka:1000 X10 = 10.000)
  2. four of kind x 250 harga jackpot yang anda beli
      (contoh:anda membeli 1000 maka:1000 X250 = 250.000)
  3. Straight flush x 1200
      (contoh:anda membeli 1000 maka:1000 X1200 = 1.200.000)
  4. Royal flush x 10000 harga jackpot yang anda beli
      (contoh:anda membeli 1000 maka:1000 X10000 = 10.000.000)
  5. SUPER ROYAL FLUSH x 30000 harga jackpot yang anda beli
      (contoh:anda membeli 1000 maka:1000 X30000 = 30.000.000)

Kondisi kartu

  1. full house adalah kondisi kartu dimana kartu anda dan kartu tengah dengan total 7 kartu bisa mendapatkan nilai 5 kartu dengan kombinasi 1 tris(three of kind) dan 1 pair, contoh 3 kartu 10 dan 2 kartu 5
  2. Four of kind adalah kondisi kartu dimana kartu anda dan kartu tengah dengan total 7 kartu bisa mendapatkan nilai 5 kartu dengan kombinasi 4 kartu yang sama jumlah dan 1 kartu apapun juga contoh anda mendapatkan 4 buah kartu angka 3 dan 1 kartu apapun.
  3. Staright flush adalah kondisi kartu dimana kartu anda dan kartu tengah dengan total 7 kartu bisa mendapatkan nilai 5 kartu dengan kombinasi seri / staright dengan kembang yang sama contoh : urutan kartu dari angka 5, 6, 7, 8 , 9 10 dengan kembang yg sama misalnya as hati
  4. Royal flush adalah kondisi kartu dimana kartu anda dan kartu tengah dengan total 7 kartu bisa mendapatkan nilai 5 kartu dengan kombinasi seri / staright dengan kembang yang sama tetapi kartu tersebut haruslah dimulai dari 10. contoh 10, Queen, Jack, King dan aces dengan kembang yang sama
  5. Super Royal flush adalah kondisi kartu dimana Kedua kartu anda digabung dengan 3 kartu pertama meja haruslah royal flush. contoh kartu anda 10,Queen kembang sama dan 3 kartu pertama meja adalah Jack, King dan aces dengan kembang yang sama

Demikian adalah penjelasan dari Multi Jackpot www.ratupokerqq.com terima kasih dan selamat bermain salam hoki dari kami

Texas Poker Jackpot Winner

TOP SUPER ROYAL FLUSH
No.TanggalNamaPriceWin
121/04 20:50KESET24Super Royal flush30,000,000
221/04 19:12POZ88Super Royal flush6,000,000
321/04 17:27COYYOUNFLOSuper Royal flush15,000,000
421/04 15:59AHOK787Super Royal flush6,000,000
521/04 13:00SEMBILAN81Super Royal flush15,000,000
TOP ROYAL FLUSH
No.TanggalNamaPriceWin
121/04 21:52T2H8KIGFSLRoyal flush5,000,000
221/04 21:51COMIL008Royal flush10,000,000
321/04 21:43MAUJARoyal flush1,000,000
421/04 21:33BALUAP9Royal flush2,000,000
521/04 21:09UCINK300Royal flush2,000,000
TOP STRAIGHT FLUSH
No.TanggalNamaPriceWin
121/04 21:59CK9R8QVML7Straight Flush240,000
221/04 21:58TAC2502Straight Flush120,000
321/04 21:54GOLFCINTAStraight Flush240,000
421/04 21:53B44SENGStraight Flush240,000
521/04 21:52IMOTFUCKStraight Flush240,000
LATEST JACKPOT
No.TanggalNamaPriceWin
121/04 22:01GO1818Full House10,000
221/04 22:01HADIE79Full House1,000
321/04 22:00VLD0AESS95Full House2,000
421/04 22:00MBAHUTI28Four Of A Kind50,000
521/04 22:00BERKARYA12Full House1,000
621/04 22:00RESA1088Full House2,000
721/04 22:00PRIHATIN55Full House5,000
821/04 22:00MELY168Full House500
921/04 22:00OZOGEDENFull House1,000
1021/04 22:00YUKICHIFull House2,000
1121/04 22:00PNJOL77Full House500
1221/04 22:00WIKY123Four Of A Kind50,000
1321/04 22:00KSTAR23Full House5,000
1421/04 22:00GAJAH88SEYFull House2,000
1521/04 22:00GRM1003Full House2,000
1621/04 22:00RAM10Full House2,000
1721/04 22:00KANCUTT13Full House2,000
1821/04 22:00S0EE7M1PUJFull House1,000
1921/04 22:00RY_QUINZHAFull House2,000
2021/04 22:00L30N3L10Full House5,000
2121/04 22:00JABRIX_199Full House5,000
2221/04 22:00NURALIM09Full House5,000
2321/04 22:00BANTUAN85Four Of A Kind250,000
2421/04 22:00LLK1234Full House5,000
2521/04 22:00REZEKI2018Full House10,000
2621/04 22:00RANYYULIAFull House1,000
2721/04 22:00EXANYFull House1,000
2821/04 22:00TEMPEKIJO9Full House2,000
2921/04 22:00GOMAD2Full House2,000
3021/04 22:00RIIDA338Full House5,000
3121/04 22:00BU4N47Full House2,000
3221/04 22:00FVISI19NG1Full House2,000
3321/04 22:00WILHANDIFull House1,000
3421/04 22:00P3M41N303Full House5,000
3521/04 22:00YTRWQ22Full House2,000
3621/04 22:00CEKRIKFull House5,000
3721/04 22:00JESYLN1234Full House10,000
3821/04 22:00WISKY323Full House10,000
3921/04 22:00MIRZA2015Four Of A Kind250,000
4021/04 22:00SAKHA_99Full House2,000
4121/04 22:00MUMESFull House5,000
4221/04 22:00QUINCIIFull House2,000
4321/04 22:00CEVI9197Full House10,000
4421/04 22:00TAREIFull House10,000
4521/04 22:00CS_ONERR22Full House1,000
4621/04 22:00SELON02Full House1,000
4721/04 22:00ECE08A9DFull House2,000
4821/04 22:00FIVEBROTHFull House2,000
4921/04 22:00ASKERSFull House5,000
5021/04 22:00RANI8787Full House5,000

Domino Multi Jackpot System

Ikutilah global jackpot yang tersedia di system kami, dengan system jackpot terbaru dan pertama di indonesia, anda dapat membeli jackpot dengan harga 100 rupiah saja dan menangkan hadiahnya hingga puluhan juta rupiah.

Jackpot bukanlah suatu keharusan untuk dibeli, namun kami memberikan suatu fitur tambahan untuk member tercinta dari www.ratupokerqq.com.

Terdapat tiga pilihan harga jackpot yang bisa anda beli yaitu :100,500 dan 1000 rupiah.

Hadiah dari Multi jackpot system www.ratupokerqq.com

  1. Murni Kecil x 50 harga jackpot yang anda beli.
      (contoh:anda membeli 1000 maka:1000 X 50 = 50.000)
  2. Murni Besar x 50 harga jackpot yang anda beli
      (contoh:anda membeli 1000 maka:1000 X 50 = 50.000)
  3. BALAK x 100 harga jackpot yang anda beli
      (contoh:anda membeli 1000 maka:1000 X 100 = 100.000)
  4. ENAM DEWA x 6666 harga jackpot yang anda beli
      (contoh:anda membeli 1000 maka:1000 X 6666 = 6.666.000)

Demikian adalah penjelasan dari Multi Jackpot www.ratupokerqq.com terima kasih dan selamat bermain salam hoki dari kami

Domino Jackpot Winner

TOP ENAM DEWA
No.TanggalNamaPriceWin
121/04 21:22PURWADI_44murni enam6,666,000
221/04 19:27EXZF5YM7WGmurni enam666,600
321/04 17:52KALOK99murni enam6,666,000
421/04 15:47K3W3Qmurni enam6,666,000
521/04 14:45HAMAD997murni enam3,333,000
TOP BALAK
No.TanggalNamaPriceWin
121/04 22:00GOOLL99balak50,000
221/04 22:00BEUHIKbalak100,000
321/04 21:59PITEK_46balak100,000
421/04 21:58A603NGKURbalak100,000
521/04 21:58RBS497balak100,000
LATEST JACKPOT
No.TanggalNamaPriceWin
121/04 22:00GOOLL99balak50,000
221/04 22:00IKIIKI01murni kecil50,000
321/04 22:00OHOS420murni besar25,000
421/04 22:00E76419CDlucky992,500
521/04 22:00BEUHIKbalak100,000
621/04 22:00QNET987murni kecil50,000
721/04 21:59PITEK_46balak100,000
821/04 21:59BARSTS1lucky9910,000
921/04 21:59SAYLA88murni kecil25,000
1021/04 21:59THAYA84murni kecil50,000
1121/04 21:59ODL1YEON0Rmurni kecil25,000
1221/04 21:58DWTTAKWINER89murni besar5,000
1321/04 21:58A603NGKURbalak100,000
1421/04 21:58RBS497balak100,000
1521/04 21:58IDIHIHbalak10,000
1621/04 21:57NDEEEZ305murni besar50,000
1721/04 21:57AFDALAHMADlucky992,500
1821/04 21:56WAZSPLBZTImurni kecil50,000
1921/04 21:56RUSMA12murni besar50,000
2021/04 21:55SUHARI33murni kecil50,000
2121/04 21:55OVJVSOPOYGbalak10,000
2221/04 21:54CAMP8murni kecil50,000
2321/04 21:54MUSAROmurni kecil50,000
2421/04 21:54ABOE07murni kecil50,000
2521/04 21:54CHOPIKmurni besar50,000
2621/04 21:54K4MPANG05murni kecil25,000
2721/04 21:54AQUA6666murni kecil5,000
2821/04 21:53YAPIK99balak100,000
2921/04 21:52J3NGK0L1Nmurni besar50,000
3021/04 21:52BRAM666murni besar25,000
3121/04 21:52ERLBROmurni besar50,000
3221/04 21:52LEKRUNmurni besar50,000
3321/04 21:52T4DMERCON99murni kecil50,000
3421/04 21:51BEBEC98murni kecil50,000
3521/04 21:51BACEE111murni besar50,000
3621/04 21:51CELULER82murni kecil5,000
3721/04 21:51RUSMA12murni besar50,000
3821/04 21:51MENTER1234murni besar5,000
3921/04 21:51PHOENIX008murni kecil50,000
4021/04 21:50ANGKAT90lucky9950,000
4121/04 21:50MANTEB98murni kecil50,000
4221/04 21:50WIDOT00balak50,000
4321/04 21:50ALKALINITYmurni besar50,000
4421/04 21:49LOVE_MUlucky992,500
4521/04 21:49PRESTIbalak100,000
4621/04 21:49QEYY22balak100,000
4721/04 21:49RENANG00murni besar50,000
4821/04 21:48SIDIKGAULmurni kecil5,000
4921/04 21:48ADIVANbalak100,000
5021/04 21:48NIEL04balak100,000

Ceme Multi Jackpot System

Jackpot dilihat dari gabungan kartu pemain dengan kartu bandar. Bandar harus membeli jackpot sebanyak jumlah player yang sedang duduk. Sebagai contoh bila terdapat 3 pemain duduk bermain, dan bandar memutuskan untuk membeli jackpot Rp 1.000, maka pada periode tersebut bandar akan membeli jackpot sebanyak 3xRp1.000 = Rp3.000.

Jackpot bukanlah suatu keharusan untuk dibeli, namun kami memberikan suatu fitur tambahan untuk member tercinta dari www.ratupokerqq.com.

Terdapat tiga pilihan harga jackpot yang bisa anda beli yaitu :100,500 dan 1000 rupiah.

Hadiah dari Multi jackpot system www.ratupokerqq.com

  1. Murni Kecil x 50 harga jackpot yang anda beli.
      (contoh:anda membeli 1000 maka:1000 X 50 = 50.000)
  2. Murni Besar x 50 harga jackpot yang anda beli
      (contoh:anda membeli 1000 maka:1000 X 50 = 50.000)
  3. BALAK x 200 harga jackpot yang anda beli
      (contoh:anda membeli 1000 maka:1000 X 200 = 200.000)
  4. ENAM DEWA x 6666 harga jackpot yang anda beli
      (contoh:anda membeli 1000 maka:1000 X 6666 = 6.666.000)

Demikian adalah penjelasan dari Multi Jackpot www.ratupokerqq.com terima kasih dan selamat bermain salam hoki dari kami

Ceme Jackpot Winner

TOP ENAM DEWA
No.TanggalNamaPriceWin
121/04 21:50SUTEBOmurni enam6,666,000
221/04 21:50DEVOEL99murni enam3,333,000
321/04 21:48BONDA998murni enam6,666,000
421/04 21:35ENDRO321murni enam6,666,000
521/04 21:35ARASHI25murni enam3,333,000
TOP BALAK
No.TanggalNamaPriceWin
121/04 22:00BP885656balak200,000
221/04 22:00CAPPABELLAbalak200,000
321/04 22:00JANJI303balak20,000
421/04 22:00MUJURAN9balak20,000
521/04 22:00KONDENDEbalak20,000
LATEST JACKPOT
No.TanggalNamaPriceWin
121/04 22:00BP885656balak200,000
221/04 22:00CAPPABELLAbalak200,000
321/04 22:00JANJI303balak20,000
421/04 22:00MUJURAN9balak20,000
521/04 22:00KONDENDEbalak20,000
621/04 22:00MOCH537murni kecil50,000
721/04 22:00CAPGARPU99murni kecil25,000
821/04 22:00OKIS89murni kecil50,000
921/04 22:00ADET47murni kecil50,000
1021/04 22:00PAKSON17murni besar50,000
1121/04 22:00SANDER888balak20,000
1221/04 22:00SUMOJPmurni kecil5,000
1321/04 22:00BOHENGmurni besar50,000
1421/04 22:00Y359999murni kecil50,000
1521/04 22:00BOYLETOY87murni kecil25,000
1621/04 22:00S333N4NGmurni kecil50,000
1721/04 22:00CHIPEKOmurni kecil50,000
1821/04 22:00ZOELJAYAmurni kecil50,000
1921/04 22:00ASTREA_37murni kecil25,000
2021/04 22:00UCUPWOLESbalak100,000
2121/04 21:59ANTH0N8murni kecil25,000
2221/04 21:59FIFASUKImurni kecil50,000
2321/04 21:59JIANTO99murni kecil5,000
2421/04 21:59QSINTAQQmurni kecil5,000
2521/04 21:59OKIS89murni kecil50,000
2621/04 21:59SASWARIImurni kecil50,000
2721/04 21:59BENEH98murni kecil5,000
2821/04 21:59SOAK50murni besar50,000
2921/04 21:59AYYASSSmurni kecil5,000
3021/04 21:59M3YM333Ymurni kecil5,000
3121/04 21:59BANG8186balak200,000
3221/04 21:59ORTQQHINGmurni kecil50,000
3321/04 21:59BP885656balak200,000
3421/04 21:59CAPPABELLAbalak200,000
3521/04 21:59AYANKQHUbalak200,000
3621/04 21:59AYUDEWAbalak20,000
3721/04 21:59R44M1R3Smurni kecil50,000
3821/04 21:59JIMI889murni kecil50,000
3921/04 21:59SITISAN09murni besar50,000
4021/04 21:59ARTHINK09murni kecil50,000
4121/04 21:59LUME77murni kecil25,000
4221/04 21:58FARELLASSmurni kecil5,000
4321/04 21:58ROSTAM1234murni kecil5,000
4421/04 21:58BADBOY951murni besar50,000
4521/04 21:58GAMBLISH99balak100,000
4621/04 21:58AANTAKER27balak200,000
4721/04 21:58JOBTOWIL21murni kecil50,000
4821/04 21:58S7WDKKC6YUmurni besar5,000
4921/04 21:58BP885656balak200,000
5021/04 21:58BNGKITmurni kecil5,000